Tracking 20724 objects as of 2-Jun-2020
HD Live streaming from Space Station
objects crossing your sky now

PROGRESS MS-12


PROGRESS MS-12 is no longer on orbit
PROGRESS MS-12 is classified as:


NORAD ID: 44455
Int'l Code: 2019-047A
Perigee: N/A
Apogee: N/A
Inclination: N/A
Period: N/A
Semi major axis: N/A
RCS: N/A
Launch date: July 31, 2019
Source: Commonwealth of Independent States (former USSR) (CIS)
Launch site: TYURATAM MISSILE AND SPACE COMPLEX (TTMTR)
Decay date: 2019-11-29
aabbcc
Your satellite tracking list
Your tracking list is empty




NASA's NSSDC Master Catalog

Two Line Element Set (TLE):
1 44455U 19047A   19333.51783652  .00005209  00000-0  10000-3 0  9999
2 44455  51.6557 261.6161 0011642  29.1270 133.6262 15.49733374 18762
Source of the keplerian elements: AFSPC